Location: Audinghen
(50.8518°N, 1.6129°E)
Time: 05:40:48
(UTC+00:00)

IRS-P3 - Pass Details

Date: 07 August 2020
Orbit: 814 x 819 km, 98.9° (Epoch: 19 September)

Event Time Altitude Azimuth Distance (km) Brightness Sun altitude
Rises 03:05:21 0° 13° (NNE) 3,363 8.4 -11.5°
Reaches altitude 10° 03:07:44 10° 10° (N) 2,426 7.5 -11.2°
Maximum altitude 03:13:01 62° 291° (WNW) 923 4.3 -10.6°
Enters shadow 03:17:57 12° 212° (SSW) 2,285 5.8 -10.1°
